When you browse on this site, cookies collect data to enhance your experience and personalize the content and advertising you see.
Visit our Privacy Policy to learn more. By continuing to use the site, you agree to this use of cookies and data.

Hourly Weather Dinagepoor

Today, 9 August, Sunday

Time Temperature Precipitation Wind Pressure Humidity
00:00 +33°C° 0 mm 3 mps 747 mmHg 75%
01:00 +31°C° 0 mm 2 mps 747 mmHg 77%
02:00 +31°C° 0 mm 2 mps 747 mmHg 79%
03:00 +31°C° 0 mm 2 mps 747 mmHg 82%
04:00 +31°C° 0.3 mm 2 mps 747 mmHg 83%
05:00 +30°C° 0.3 mm 2 mps 747 mmHg 84%
06:00 +30°C° 0 mm 1 mps 747 mmHg 87%
07:00 +31°C° 0.5 mm 2 mps 747 mmHg 81%
08:00 +32°C° 0.5 mm 2 mps 747 mmHg 75%
09:00 +34°C° 0.5 mm 3 mps 748 mmHg 69%
10:00 +35°C° 1.3 mm 3 mps 748 mmHg 68%
11:00 +35°C° 1.3 mm 3 mps 748 mmHg 66%
12:00 +36°C° 0 mm 4 mps 748 mmHg 64%
13:00 +36°C° 0.8 mm 4 mps 747 mmHg 62%
14:00 +37°C° 0.8 mm 3 mps 746 mmHg 60%
15:00 +37°C° 0.8 mm 3 mps 746 mmHg 58%
16:00 +37°C° 0.9 mm 3 mps 746 mmHg 60%
17:00 +36°C° 0.9 mm 3 mps 746 mmHg 62%
18:00 +35°C° 0 mm 3 mps 746 mmHg 64%
19:00 +35°C° 0.2 mm 3 mps 747 mmHg 68%
20:00 +34°C° 0.2 mm 3 mps 747 mmHg 72%
21:00 +33°C° 0.2 mm 3 mps 748 mmHg 75%
22:00 +33°C° 1.3 mm 3 mps 748 mmHg 77%
23:00 +31°C° 1.3 mm 3 mps 748 mmHg 79%

Tomorrow, 10 August, Monday

Time Temperature Precipitation Wind Pressure Humidity
00:00 +31°C° 1.3 mm 3 mps 748 mmHg 81%
01:00 +31°C° 1.2 mm 3 mps 748 mmHg 82%
02:00 +31°C° 1.2 mm 3 mps 748 mmHg 83%
03:00 +30°C° 1.2 mm 3 mps 748 mmHg 84%
04:00 +30°C° 0.9 mm 3 mps 748 mmHg 85%
05:00 +30°C° 0.9 mm 3 mps 748 mmHg 86%
06:00 +30°C° 0.9 mm 3 mps 748 mmHg 87%
07:00 +31°C° 0.9 mm 3 mps 749 mmHg 83%
08:00 +31°C° 0.9 mm 3 mps 749 mmHg 78%
09:00 +33°C° 0.9 mm 4 mps 750 mmHg 74%
10:00 +34°C° 0.6 mm 3 mps 750 mmHg 69%
11:00 +35°C° 0.6 mm 3 mps 749 mmHg 64%
12:00 +36°C° 0.6 mm 3 mps 749 mmHg 59%
13:00 +37°C° 0.2 mm 3 mps 748 mmHg 58%
14:00 +37°C° 0.2 mm 3 mps 748 mmHg 58%
15:00 +37°C° 0.2 mm 3 mps 747 mmHg 58%
16:00 +36°C° 1.1 mm 3 mps 747 mmHg 62%
17:00 +35°C° 1.1 mm 4 mps 747 mmHg 67%
18:00 +34°C° 1.1 mm 4 mps 746 mmHg 72%
19:00 +33°C° 2.1 mm 4 mps 747 mmHg 75%
20:00 +33°C° 2.1 mm 4 mps 748 mmHg 79%
21:00 +31°C° 2.1 mm 3 mps 748 mmHg 82%
22:00 +31°C° 2 mm 3 mps 748 mmHg 83%
23:00 +31°C° 2 mm 3 mps 748 mmHg 83%

Day after tomorrow, 11 August, Tuesday

Time Temperature Precipitation Wind Pressure Humidity
00:00 +31°C° 2 mm 3 mps 748 mmHg 84%
01:00 +30°C° 2.4 mm 4 mps 748 mmHg 84%
02:00 +30°C° 2.4 mm 4 mps 747 mmHg 84%
03:00 +30°C° 2.4 mm 4 mps 747 mmHg 85%
04:00 +30°C° 1.8 mm 4 mps 747 mmHg 85%
05:00 +30°C° 1.8 mm 4 mps 747 mmHg 86%
06:00 +30°C° 1.8 mm 4 mps 747 mmHg 87%
07:00 +30°C° 0.9 mm 4 mps 748 mmHg 86%
08:00 +30°C° 0.9 mm 4 mps 748 mmHg 84%
09:00 +31°C° 0.9 mm 3 mps 748 mmHg 83%
10:00 +32°C° 0.7 mm 4 mps 748 mmHg 82%
11:00 +32°C° 0.7 mm 4 mps 748 mmHg 81%
12:00 +32°C° 0.7 mm 4 mps 748 mmHg 80%
13:00 +33°C° 1 mm 4 mps 748 mmHg 79%
14:00 +33°C° 1 mm 4 mps 747 mmHg 78%
15:00 +33°C° 1 mm 4 mps 747 mmHg 76%
16:00 +32°C° 0.2 mm 4 mps 747 mmHg 79%
17:00 +32°C° 0.2 mm 4 mps 747 mmHg 82%
18:00 +30°C° 0.2 mm 4 mps 747 mmHg 85%
19:00 +30°C° 0.2 mm 4 mps 747 mmHg 86%
20:00 +30°C° 0.2 mm 4 mps 748 mmHg 88%
21:00 +29°C° 0.2 mm 4 mps 749 mmHg 89%
22:00 +29°C° 1.3 mm 3 mps 749 mmHg 90%
23:00 +29°C° 1.3 mm 3 mps 749 mmHg 91%

12 August, Wednesday

Time Temperature Precipitation Wind Pressure Humidity
00:00 +28°C° 1.3 mm 3 mps 748 mmHg 92%
01:00 +28°C° 1.1 mm 3 mps 748 mmHg 93%
02:00 +28°C° 1.1 mm 3 mps 748 mmHg 93%
03:00 +28°C° 1.1 mm 3 mps 747 mmHg 93%
04:00 +28°C° 1.2 mm 3 mps 747 mmHg 93%
05:00 +28°C° 1.2 mm 3 mps 748 mmHg 93%
06:00 +28°C° 1.2 mm 3 mps 748 mmHg 93%
07:00 +29°C° 1.2 mm 3 mps 748 mmHg 90%
08:00 +30°C° 1.2 mm 3 mps 749 mmHg 86%
09:00 +30°C° 1.2 mm 3 mps 749 mmHg 83%
10:00 +31°C° 1.3 mm 3 mps 749 mmHg 81%
11:00 +33°C° 1.3 mm 3 mps 749 mmHg 79%
12:00 +33°C° 1.3 mm 3 mps 749 mmHg 77%
13:00 +34°C° 0.6 mm 3 mps 748 mmHg 75%
14:00 +34°C° 0.6 mm 3 mps 747 mmHg 72%
15:00 +35°C° 0.6 mm 4 mps 747 mmHg 69%
16:00 +34°C° 0.2 mm 4 mps 746 mmHg 73%
17:00 +33°C° 0.2 mm 4 mps 746 mmHg 77%
18:00 +32°C° 0.2 mm 4 mps 746 mmHg 81%
19:00 +32°C° 0 mm 4 mps 746 mmHg 83%
20:00 +30°C° 0 mm 3 mps 747 mmHg 85%
21:00 +30°C° 0 mm 3 mps 748 mmHg 86%
22:00 +30°C° 0.1 mm 3 mps 748 mmHg 87%
23:00 +30°C° 0.1 mm 3 mps 748 mmHg 87%

13 August, Thursday

Time Temperature Precipitation Wind Pressure Humidity
00:00 +30°C° 0.1 mm 3 mps 748 mmHg 88%
01:00 +30°C° 1.3 mm 3 mps 748 mmHg 88%
02:00 +30°C° 1.3 mm 3 mps 747 mmHg 89%
03:00 +30°C° 1.3 mm 3 mps 747 mmHg 89%
04:00 +29°C° 0.8 mm 3 mps 747 mmHg 90%
05:00 +29°C° 0.8 mm 3 mps 747 mmHg 90%
06:00 +29°C° 0.8 mm 4 mps 747 mmHg 90%
07:00 +30°C° 0.1 mm 4 mps 747 mmHg 85%
08:00 +32°C° 0.1 mm 4 mps 748 mmHg 80%
09:00 +33°C° 0.1 mm 5 mps 748 mmHg 76%
10:00 +34°C° 0.2 mm 5 mps 748 mmHg 71%
11:00 +35°C° 0.2 mm 4 mps 748 mmHg 67%
12:00 +36°C° 0.2 mm 4 mps 748 mmHg 62%
13:00 +37°C° 0.6 mm 4 mps 747 mmHg 61%
14:00 +37°C° 0.6 mm 4 mps 746 mmHg 60%
15:00 +37°C° 0.6 mm 4 mps 745 mmHg 58%
16:00 +36°C° 1 mm 4 mps 745 mmHg 62%
17:00 +36°C° 1 mm 4 mps 745 mmHg 65%
18:00 +35°C° 1 mm 3 mps 744 mmHg 69%
19:00 +34°C° 0.8 mm 3 mps 745 mmHg 72%
20:00 +33°C° 0.8 mm 3 mps 746 mmHg 76%
21:00 +33°C° 0.8 mm 3 mps 747 mmHg 79%
22:00 +31°C° 0.5 mm 3 mps 747 mmHg 80%
23:00 +31°C° 0.5 mm 3 mps 747 mmHg 82%

14 August, Friday

Time Temperature Precipitation Wind Pressure Humidity
00:00 +31°C° 0.5 mm 3 mps 747 mmHg 83%
01:00 +30°C° 1.2 mm 3 mps 746 mmHg 84%
02:00 +30°C° 1.2 mm 4 mps 746 mmHg 86%
03:00 +30°C° 1.2 mm 4 mps 745 mmHg 87%
04:00 +30°C° 0.4 mm 4 mps 746 mmHg 88%
05:00 +29°C° 0.4 mm 4 mps 746 mmHg 89%
06:00 +29°C° 0.4 mm 3 mps 746 mmHg 90%
07:00 +30°C° 0.2 mm 4 mps 747 mmHg 84%
08:00 +32°C° 0.2 mm 4 mps 747 mmHg 79%
09:00 +33°C° 0.2 mm 4 mps 747 mmHg 73%
10:00 +34°C° 0.3 mm 4 mps 747 mmHg 69%
11:00 +36°C° 0.3 mm 4 mps 747 mmHg 65%
12:00 +37°C° 0.3 mm 5 mps 747 mmHg 61%
13:00 +37°C° 0.4 mm 5 mps 746 mmHg 60%
14:00 +37°C° 0.4 mm 5 mps 745 mmHg 60%
15:00 +37°C° 0.4 mm 5 mps 745 mmHg 60%
16:00 +36°C° 1.3 mm 5 mps 744 mmHg 64%
17:00 +35°C° 1.3 mm 5 mps 744 mmHg 68%
18:00 +34°C° 1.3 mm 5 mps 744 mmHg 72%
19:00 +34°C° 1.5 mm 5 mps 745 mmHg 75%
20:00 +33°C° 1.5 mm 5 mps 746 mmHg 77%
21:00 +33°C° 1.5 mm 5 mps 747 mmHg 80%
22:00 +32°C° 1.3 mm 4 mps 747 mmHg 81%
23:00 +32°C° 1.3 mm 4 mps 747 mmHg 82%
Show more